sat.trackr.live / text

‹ back to catalog

STARLINK-36946

NORAD 68382 · 2026-063C

PAYLOAD ACTIVE UNKNOWN

§ Identity

Operator
Country
US
Launch date
2026-03-26
Launch site
AFWTR
Launch vehicle
Mass (kg)
RCS (m²)

Purposes: comms

External: N2YO · Heavens-Above · Gunter

§ Orbital elements

Epoch: 2026-05-25T03:21:34.010208Z

Period
93.91 min
Inclination
97.2870°
Eccentricity
0.0001109
Mean motion
15.33456646 rev/d
Perigee alt
464.7 km
Apogee alt
466.3 km
Semi-major
6,843.6 km
B*
9.4653e-4
RAAN
287.7379°
Arg perigee
86.6807°
Mean anomaly
273.4563°
Rev number
961

§ Raw data

STARLINK-369461 68382U 26063C   26145.13997697  .00030618  00000+0  94653-3 0  99902 68382  97.2870 287.7379 0001109  86.6807 273.4563 15.33456646  9610

JSON: /api/v1/satellites/68382 · /tle

For live sub-satellite position, see the globe view (requires WebGL).

§ Visibility from observer

Set your observer location to see the next 7 days of passes ≥ 10°. The values pass through the URL so the page stays shareable.

No JS? Fill the form by hand. The geolocation button needs JavaScript.